sat.trackr.live / text

‹ back to catalog

ONEWEB-0529

NORAD 54145 · 2022-138AJ

PAYLOAD ACTIVE UNKNOWN

§ Identity

Operator
Country
UK
Launch date
2022-10-22
Launch site
SRILR
Launch vehicle
Mass (kg)
RCS (m²)

Purposes: comms

External: N2YO · Heavens-Above · Gunter

§ Orbital elements

Epoch: 2026-05-25T03:35:13.007040Z

Period
109.11 min
Inclination
87.9151°
Eccentricity
0.0001617
Mean motion
13.19726659 rev/d
Perigee alt
1,184.5 km
Apogee alt
1,187.0 km
Semi-major
7,563.9 km
B*
-8.2786e-5
RAAN
309.5672°
Arg perigee
88.0554°
Mean anomaly
272.0764°
Rev number
17,378

§ Raw data

ONEWEB-05291 54145U 22138AJ  26145.14945610 -.00000020  00000+0 -82786-4 0  99912 54145  87.9151 309.5672 0001617  88.0554 272.0764 13.19726659173782

JSON: /api/v1/satellites/54145 · /tle

For live sub-satellite position, see the globe view (requires WebGL).

§ Visibility from observer

Set your observer location to see the next 7 days of passes ≥ 10°. The values pass through the URL so the page stays shareable.

No JS? Fill the form by hand. The geolocation button needs JavaScript.